Starlink 2414

operational
NORAD ID: 48095 Int'l Des: 2021-027 Owner: SPXS Country: US Constellation: starlink
LEOCIRCULARSTARLINK_TYPE

Starlink 2414について

説明を読み込み中...

リアルタイム位置

3D地球を読み込み中...

次回通過

高度履歴

Altitude vs Time

uPlot chart will show altitude changes over time

軌道要素

1 48095U 21027D 25299.48838328 -.00000702 00000-0 -28224-4 0 9992
2 48095 53.0589 54.0743 0001499 114.1295 245.9851 15.06396747252200
Epoch: Oct 26, 2025 • Age: 6 hours

現在のステータス

高度 558.1 km
速度 7.58 km/s
衛星直下点 -32.13°S, 80.95°E
打ち上げ日 Apr 7, 2021
運用期間 4.5 years
タイプ internet

技術仕様

分類 Payload
質量 260.00 kg
乾燥質量 248.00 kg
総質量 260.00 kg
長さ 0.20 m
直径 2.80 m
スパン 9.00 m
形状 Box + pan
製造者 SPXS
バスタイプ Starlink
フェーズステータス In Orbit
所有者/国 SPXS/US

大規模コンステレーション

Loading constellations...